timestamp,wind_dir_avg,wind_spd_avg,wind_spd_max_dir,wind_spd_gust,battery_voltage,lat,long
2023-05-13 00:04:00+00:00,194.0,5.24,200.0,6.03,12.89,47.59359,-54.27349
2023-05-13 00:14:00+00:00,203.0,5.31,204.0,5.65,12.41,47.59359,-54.27349
2023-05-13 00:24:00+00:00,205.0,5.05,205.0,5.6,12.41,47.59359,-54.27349
2023-05-13 00:34:00+00:00,195.0,3.69,195.0,3.98,12.41,47.59359,-54.27349
2023-05-13 00:44:00+00:00,165.0,3.17,168.0,3.45,12.41,47.59359,-54.27349
2023-05-13 00:54:00+00:00,184.0,3.99,186.0,4.59,12.41,47.59359,-54.27349
2023-05-13 01:04:00+00:00,179.0,3.68,179.0,4.01,12.41,47.59359,-54.27349
2023-05-13 01:14:00+00:00,191.0,2.85,190.0,3.13,12.33,47.59359,-54.27349
2023-05-13 01:24:00+00:00,193.0,2.72,199.0,3.13,12.33,47.59359,-54.27349
2023-05-13 01:34:00+00:00,211.0,2.92,217.0,3.25,12.33,47.59359,-54.27349
2023-05-13 01:44:00+00:00,218.0,2.12,215.0,2.59,12.33,47.59359,-54.27349
2023-05-13 01:54:00+00:00,247.0,1.1,251.0,1.37,12.33,47.59359,-54.27349
2023-05-13 02:04:00+00:00,241.0,2.3,243.0,2.73,12.33,47.59359,-54.27349
2023-05-13 02:14:00+00:00,245.0,1.77,250.0,2.1,12.33,47.59359,-54.27349
2023-05-13 02:24:00+00:00,208.0,1.06,226.0,1.34,12.33,47.59359,-54.27349
2023-05-13 02:34:00+00:00,224.0,2.04,225.0,2.23,12.33,47.59359,-54.27349
2023-05-13 02:44:00+00:00,184.0,1.4,179.0,1.64,12.33,47.59359,-54.27349
2023-05-13 02:54:00+00:00,194.0,1.22,206.0,1.65,12.33,47.59359,-54.27349
2023-05-13 03:04:00+00:00,227.0,1.06,228.0,1.33,12.33,47.59359,-54.27349
2023-05-13 03:14:00+00:00,224.0,0.95,214.0,1.15,12.33,47.59359,-54.27349
2023-05-13 03:24:00+00:00,203.0,1.27,207.0,1.37,12.33,47.59359,-54.27349
2023-05-13 03:34:00+00:00,199.0,1.14,199.0,1.27,12.33,47.59359,-54.27349
2023-05-13 03:44:00+00:00,221.0,1.33,225.0,1.66,12.33,47.59359,-54.27349
2023-05-13 03:54:00+00:00,219.0,1.01,213.0,1.23,12.33,47.59359,-54.27349
2023-05-13 04:04:00+00:00,246.0,1.52,228.0,2.67,12.33,47.59359,-54.27349
2023-05-13 04:14:00+00:00,243.0,2.85,246.0,3.97,12.25,47.59359,-54.27349
2023-05-13 04:24:00+00:00,258.0,2.2,256.0,3.27,12.25,47.59359,-54.27349
2023-05-13 04:34:00+00:00,223.0,3.04,226.0,3.6,12.25,47.59359,-54.27349
2023-05-13 04:44:00+00:00,232.0,2.01,230.0,2.29,12.25,47.59359,-54.27349
2023-05-13 04:54:00+00:00,213.0,1.2,214.0,1.43,12.25,47.59359,-54.27349
2023-05-13 05:04:00+00:00,207.0,2.08,207.0,2.23,12.25,47.59359,-54.27349
2023-05-13 05:14:01+00:00,202.0,2.13,208.0,2.72,12.25,47.59359,-54.27349
2023-05-13 05:24:01+00:00,220.0,3.6,226.0,4.12,12.25,47.59359,-54.27349
2023-05-13 05:34:01+00:00,225.0,3.44,219.0,4.73,12.25,47.59359,-54.27349
2023-05-13 05:44:01+00:00,214.0,5.52,217.0,6.49,12.25,47.59359,-54.27349
2023-05-13 05:54:01+00:00,224.0,4.43,222.0,5.39,12.25,47.59359,-54.27349
2023-05-13 06:04:01+00:00,228.0,5.75,222.0,6.38,12.25,47.59359,-54.27349
2023-05-13 06:14:00+00:00,235.0,4.74,237.0,5.32,12.17,47.59359,-54.27349
2023-05-13 06:24:00+00:00,232.0,4.42,231.0,5.55,12.17,47.59359,-54.27349
2023-05-13 06:34:00+00:00,223.0,4.27,222.0,5.22,12.17,47.59359,-54.27349
2023-05-13 06:44:00+00:00,213.0,4.07,214.0,4.77,12.17,47.59359,-54.27349
2023-05-13 06:54:00+00:00,222.0,4.33,228.0,5.06,12.17,47.59359,-54.27349
2023-05-13 07:04:00+00:00,221.0,3.98,222.0,4.59,12.17,47.59359,-54.27349
2023-05-13 07:14:00+00:00,226.0,3.93,232.0,4.88,12.17,47.59359,-54.27349
2023-05-13 07:24:00+00:00,234.0,4.61,219.0,5.43,12.17,47.59359,-54.27349
2023-05-13 07:34:00+00:00,238.0,3.51,235.0,4.2,12.17,47.59359,-54.27349
2023-05-13 07:44:00+00:00,229.0,2.76,235.0,3.33,12.17,47.59359,-54.27349
2023-05-13 07:54:00+00:00,231.0,1.8,234.0,2.08,12.17,47.59359,-54.27349
2023-05-13 08:04:00+00:00,218.0,2.36,217.0,2.69,12.17,47.59359,-54.27349
2023-05-13 08:14:01+00:00,205.0,2.62,201.0,3.12,12.09,47.59359,-54.27349
2023-05-13 08:24:01+00:00,176.0,1.89,178.0,2.35,12.09,47.59359,-54.27349
2023-05-13 08:34:01+00:00,173.0,1.36,188.0,1.78,12.09,47.59359,-54.27349
2023-05-13 08:44:01+00:00,169.0,1.07,181.0,1.32,12.09,47.59359,-54.27349
2023-05-13 08:54:01+00:00,192.0,0.54,183.0,0.73,12.09,47.59359,-54.27349
2023-05-13 09:04:01+00:00,188.0,0.78,188.0,1.03,12.09,47.59359,-54.27349
2023-05-13 09:14:01+00:00,200.0,1.69,201.0,2.13,12.49,47.59359,-54.27349
2023-05-13 09:24:01+00:00,207.0,1.99,216.0,2.94,12.49,47.59359,-54.27349
2023-05-13 09:34:01+00:00,220.0,3.58,219.0,4.85,12.49,47.59359,-54.27349
2023-05-13 09:44:01+00:00,210.0,2.7,197.0,3.56,12.49,47.59359,-54.27349
2023-05-13 09:54:01+00:00,174.0,2.15,169.0,2.48,12.49,47.59359,-54.27349
2023-05-13 10:04:01+00:00,209.0,6.22,214.0,7.29,12.49,47.59359,-54.27349
2023-05-13 10:14:00+00:00,214.0,7.79,215.0,9.1,13.53,47.59359,-54.27349
2023-05-13 10:24:00+00:00,218.0,8.08,219.0,8.89,13.53,47.59359,-54.27349
2023-05-13 10:34:00+00:00,213.0,8.34,214.0,9.4,13.53,47.59359,-54.27349
2023-05-13 10:44:00+00:00,218.0,7.32,214.0,8.77,13.53,47.59359,-54.27349
2023-05-13 10:54:00+00:00,213.0,7.39,212.0,8.43,13.53,47.59359,-54.27349
2023-05-13 11:04:00+00:00,217.0,7.1,212.0,8.39,13.53,47.59359,-54.27349
2023-05-13 11:14:00+00:00,217.0,7.53,220.0,8.85,13.68,47.59359,-54.27349
2023-05-13 11:24:00+00:00,214.0,7.91,204.0,9.45,13.68,47.59359,-54.27349
2023-05-13 11:34:00+00:00,216.0,7.96,215.0,9.35,13.68,47.59359,-54.27349
2023-05-13 11:44:00+00:00,216.0,7.08,220.0,8.04,13.68,47.59359,-54.27349
2023-05-13 11:54:00+00:00,216.0,6.79,216.0,7.74,13.68,47.59359,-54.27349
2023-05-13 12:04:00+00:00,223.0,6.2,221.0,7.14,13.68,47.59359,-54.27349
2023-05-13 12:14:01+00:00,218.0,6.73,225.0,7.5,14.4,47.59359,-54.27349
2023-05-13 12:24:01+00:00,225.0,5.4,230.0,6.84,14.4,47.59359,-54.27349
2023-05-13 12:34:01+00:00,226.0,6.72,226.0,7.78,14.4,47.59359,-54.27349
2023-05-13 12:44:01+00:00,225.0,6.34,225.0,7.67,14.4,47.59359,-54.27349
2023-05-13 12:54:01+00:00,224.0,6.05,218.0,6.93,14.4,47.59359,-54.27349
2023-05-13 13:04:01+00:00,225.0,6.66,219.0,7.74,14.4,47.59359,-54.27349
2023-05-13 13:14:01+00:00,221.0,6.14,224.0,7.16,13.6,47.59359,-54.27349
2023-05-13 13:24:01+00:00,222.0,7.08,218.0,8.63,13.6,47.59359,-54.27349
2023-05-13 13:34:01+00:00,220.0,6.89,219.0,7.92,13.6,47.59359,-54.27349
2023-05-13 13:44:01+00:00,227.0,7.58,226.0,8.78,13.6,47.59359,-54.27349
2023-05-13 13:54:01+00:00,225.0,7.66,228.0,8.52,13.6,47.59359,-54.27349
2023-05-13 14:04:01+00:00,221.0,7.53,223.0,9.07,13.6,47.59359,-54.27349
2023-05-13 14:14:00+00:00,229.0,8.59,232.0,9.52,13.68,47.59359,-54.27349
2023-05-13 14:24:00+00:00,229.0,7.84,231.0,9.41,13.68,47.59359,-54.27349
2023-05-13 14:34:00+00:00,227.0,7.64,227.0,8.76,13.68,47.59359,-54.27349
2023-05-13 14:44:00+00:00,227.0,8.29,227.0,9.97,13.68,47.59359,-54.27349
2023-05-13 14:54:00+00:00,229.0,8.3,228.0,9.66,13.68,47.59359,-54.27349
2023-05-13 15:04:00+00:00,225.0,8.44,221.0,9.55,13.68,47.59359,-54.27349
2023-05-13 15:14:00+00:00,225.0,7.73,226.0,9.25,14.4,47.59359,-54.27349
2023-05-13 15:24:00+00:00,224.0,8.69,223.0,10.06,14.4,47.59359,-54.27349
2023-05-13 15:34:00+00:00,225.0,9.51,227.0,10.55,14.4,47.59359,-54.27349
2023-05-13 15:44:00+00:00,227.0,9.9,228.0,11.06,14.4,47.59359,-54.27349
2023-05-13 15:54:00+00:00,229.0,8.91,225.0,10.73,14.4,47.59359,-54.27349
2023-05-13 16:04:00+00:00,228.0,8.48,232.0,11.19,14.4,47.59359,-54.27349
2023-05-13 16:14:00+00:00,237.0,8.03,237.0,9.17,14.4,47.59359,-54.27349
2023-05-13 16:24:00+00:00,235.0,8.48,238.0,9.83,14.4,47.59359,-54.27349
2023-05-13 16:34:00+00:00,234.0,7.82,233.0,9.3,14.4,47.59359,-54.27349
2023-05-13 16:44:00+00:00,234.0,8.07,236.0,8.96,14.4,47.59359,-54.27349
2023-05-13 16:54:00+00:00,232.0,7.41,236.0,8.88,14.4,47.59359,-54.27349
2023-05-13 17:04:00+00:00,228.0,8.54,229.0,9.83,14.4,47.59359,-54.27349
2023-05-13 17:14:00+00:00,224.0,7.1,229.0,8.13,14.4,47.59359,-54.27349
2023-05-13 17:24:00+00:00,231.0,7.48,230.0,9.12,14.4,47.59359,-54.27349
2023-05-13 17:34:00+00:00,228.0,7.03,230.0,8.61,14.4,47.59359,-54.27349
2023-05-13 17:44:00+00:00,238.0,6.87,241.0,7.74,14.4,47.59359,-54.27349
2023-05-13 17:54:00+00:00,246.0,4.57,249.0,4.94,14.4,47.59359,-54.27349
2023-05-13 18:04:00+00:00,230.0,2.44,213.0,3.49,14.4,47.59359,-54.27349
2023-05-13 18:14:00+00:00,227.0,3.39,228.0,5.27,13.92,47.59359,-54.27349
2023-05-13 18:24:00+00:00,217.0,3.43,235.0,4.84,13.92,47.59359,-54.27349
2023-05-13 18:34:00+00:00,245.0,2.55,257.0,5.11,13.92,47.59359,-54.27349
2023-05-13 18:44:00+00:00,174.0,4.39,174.0,5.08,13.92,47.59359,-54.27349
2023-05-13 18:54:00+00:00,175.0,6.12,178.0,7.18,13.92,47.59359,-54.27349
2023-05-13 19:04:00+00:00,203.0,5.79,201.0,6.61,13.92,47.59359,-54.27349
2023-05-13 19:14:00+00:00,186.0,6.32,190.0,7.49,13.68,47.59359,-54.27349
2023-05-13 19:24:00+00:00,167.0,6.01,155.0,7.53,13.68,47.59359,-54.27349
2023-05-13 19:34:00+00:00,174.0,6.84,174.0,8.08,13.68,47.59359,-54.27349
2023-05-13 19:44:00+00:00,180.0,5.61,182.0,6.57,13.68,47.59359,-54.27349
2023-05-13 19:54:00+00:00,184.0,7.71,183.0,8.29,13.68,47.59359,-54.27349
2023-05-13 20:04:00+00:00,185.0,6.02,188.0,6.46,13.68,47.59359,-54.27349
2023-05-13 20:14:00+00:00,188.0,5.17,187.0,5.63,13.76,47.59359,-54.27349
2023-05-13 20:24:00+00:00,188.0,5.67,188.0,6.56,13.76,47.59359,-54.27349
2023-05-13 20:34:00+00:00,181.0,7.36,185.0,8.39,13.76,47.59359,-54.27349
2023-05-13 20:44:00+00:00,192.0,6.06,193.0,6.97,13.76,47.59359,-54.27349
2023-05-13 20:54:00+00:00,173.0,5.25,179.0,5.86,13.76,47.59359,-54.27349
2023-05-13 21:04:00+00:00,171.0,4.45,173.0,5.25,13.76,47.59359,-54.27349
2023-05-13 21:14:00+00:00,187.0,5.34,186.0,6.18,13.21,47.59359,-54.27349
2023-05-13 21:24:00+00:00,193.0,5.1,190.0,5.76,13.21,47.59359,-54.27349
2023-05-13 21:34:00+00:00,195.0,3.89,204.0,4.59,13.21,47.59359,-54.27349
2023-05-13 21:44:00+00:00,228.0,2.41,220.0,3.77,13.21,47.59359,-54.27349
2023-05-13 21:54:00+00:00,160.0,3.5,162.0,3.9,13.21,47.59359,-54.27349
2023-05-13 22:04:00+00:00,164.0,7.67,163.0,8.85,13.21,47.59359,-54.27349
2023-05-13 22:14:00+00:00,165.0,8.45,164.0,11.75,12.89,47.59359,-54.27349
2023-05-13 22:24:00+00:00,163.0,9.8,164.0,11.24,12.89,47.59359,-54.27349
2023-05-13 22:34:00+00:00,193.0,5.08,183.0,6.45,12.89,47.59359,-54.27349
2023-05-13 22:44:00+00:00,220.0,5.33,214.0,6.49,12.89,47.59359,-54.27349
2023-05-13 22:54:00+00:00,185.0,1.92,169.0,2.71,12.89,47.59359,-54.27349
2023-05-13 23:04:00+00:00,156.0,8.98,153.0,10.59,12.89,47.59359,-54.27349
2023-05-13 23:14:00+00:00,161.0,10.01,155.0,11.63,12.57,47.59359,-54.27349
2023-05-13 23:24:00+00:00,164.0,10.38,153.0,12.23,12.57,47.59359,-54.27349
2023-05-13 23:34:00+00:00,150.0,9.49,147.0,11.05,12.57,47.59359,-54.27349
2023-05-13 23:44:00+00:00,173.0,4.83,134.0,7.29,12.57,47.59359,-54.27349
2023-05-13 23:54:00+00:00,146.0,7.72,156.0,10.57,12.57,47.59359,-54.27349
